Iliamna, AK

6:59 PM AKST on February 20, 2018 (GMT -0900)
Iliamna

Weather History for PAIL - January, 2013

Change the Weather History Date:

Monday, January 14, 2013

  Actual Average Record
Temperature  
Mean Temperature 33 °F -  
Max Temperature 43 °F 22 °F 44 °F (1977)
Min Temperature 19 °F 10 °F -28 °F (1980)
Degree Days  
Heating Degree Days 32    
Moisture  
Dew Point 29 °F    
Average Humidity 83    
Maximum Humidity 100    
Minimum Humidity 65    
Precipitation  
Precipitation 0.01 in - - ()
Sea Level Pressure  
Sea Level Pressure 29.71 in    
Wind  
Wind Speed 17 mph (SSW)    
Max Wind Speed 29 mph    
Max Gust Speed 45 mph    
Visibility 8 miles    
Events Rain , Snow    
Averages and records for this station are not official NWS values.
T = Trace of Precipitation, MM = Missing Value Source: NWS Daily Summary

Daily Weather History Graph

Daily Weather History Graph

Search for Another Location

Airport or City:

Trip Planner

Search our weather history database for the weather conditions in past years. The results will help you decide how hot, cold, wet, or windy it might be!

Date:

Astronomy

Jan. 14, 2013 Rise Set
Actual Time 10:05 AM AKST 4:52 PM AKST
Civil Twilight 9:13 AM AKST 5:44 PM AKST
Nautical Twilight 8:20 AM AKST 6:38 PM AKST
Astronomical Twilight 7:30 AM AKST 7:28 PM AKST
Moon 10:38 AM AKST (1/14) 10:05 PM AKST (1/14)
Length of Visible Light 8h 31m
Length of Day
6h 46m
Waxing Crescent, 12% of the Moon is Illuminated
Jan 14
Waxing Crescent
Jan 18
First Quarter
Jan 26
Full
Feb 3
Last Quarter
Feb 9
New

Hourly Weather History & Observations

Time (AKST) Temp. Windchill Dew Point Humidity Pressure Visibility Wind Dir Wind Speed Gust Speed Precip Events Conditions
12:53 AM 42.1 °F 33.1 °F 37.0 °F 82% 29.43 in 10.0 mi East 20.7 mph 31.1 mph 0.01 in   Overcast
1:53 AM 42.1 °F 33.1 °F 36.0 °F 79% 29.44 in 10.0 mi East 20.7 mph 28.8 mph N/A   Overcast
2:22 AM 41.0 °F 32.2 °F 35.6 °F 81% 29.44 in 10.0 mi East 18.4 mph 26.5 mph N/A   Overcast
3:30 AM 42.8 °F 35.4 °F 37.4 °F 81% 29.41 in 10.0 mi East 15.0 mph 23.0 mph 0.00 in   Overcast
3:53 AM 42.1 °F 33.9 °F 36.0 °F 79% 29.40 in 10.0 mi ENE 17.3 mph 27.6 mph 0.00 in   Overcast
4:08 AM 41.0 °F 36.4 °F 35.6 °F 81% 29.40 in 10.0 mi ENE 6.9 mph 20.7 mph N/A   Overcast
4:53 AM 41.0 °F 33.1 °F 36.0 °F 82% 29.40 in 10.0 mi East 15.0 mph 24.2 mph N/A   Overcast
5:53 AM 41.0 °F 32.5 °F 36.0 °F 82% 29.37 in 10.0 mi ESE 17.3 mph 32.2 mph N/A   Mostly Cloudy
6:53 AM 39.9 °F 31.1 °F 35.1 °F 83% 29.39 in 10.0 mi SE 17.3 mph 23.0 mph N/A   Mostly Cloudy
7:00 AM 39.2 °F 29.8 °F 35.6 °F 87% 29.39 in 10.0 mi ESE 18.4 mph - N/A   Scattered Clouds
7:53 AM 41.0 °F 34.7 °F 34.0 °F 76% 29.44 in 10.0 mi SSE 10.4 mph - 0.00 in Rain Light Rain
8:53 AM 39.0 °F 31.8 °F 35.1 °F 86% 29.50 in 10.0 mi South 11.5 mph - 0.00 in Rain Light Rain
9:53 AM 37.9 °F 30.5 °F 34.0 °F 86% 29.55 in 10.0 mi SSW 11.5 mph - 0.00 in   Mostly Cloudy
10:53 AM 39.0 °F 28.5 °F 33.1 °F 79% 29.58 in 10.0 mi SSW 23.0 mph 31.1 mph N/A   Overcast
11:53 AM 35.1 °F 26.4 °F 33.1 °F 92% 29.68 in 3.0 mi SSW 12.7 mph - 0.00 in Rain Light Rain
12:03 PM 33.8 °F 23.9 °F 33.8 °F 100% 29.68 in 2.5 mi SSW 15.0 mph 28.8 mph 0.00 in Rain Light Rain
12:10 PM 33.8 °F 24.3 °F 33.8 °F 100% 29.70 in 4.0 mi SW 13.8 mph 28.8 mph 0.00 in Rain Light Rain
12:22 PM 33.8 °F 22.2 °F 32.0 °F 93% 29.72 in 1.8 mi SW 20.7 mph 35.7 mph 0.00 in Snow Light Snow
12:53 PM 32.0 °F 19.5 °F 30.0 °F 92% 29.77 in 2.0 mi SW 21.9 mph 32.2 mph 0.00 in Snow Light Snow
1:07 PM 30.2 °F 17.1 °F 28.4 °F 93% 29.78 in 3.0 mi SW 21.9 mph 35.7 mph 0.00 in Snow Light Snow
1:12 PM 30.2 °F 15.7 °F 28.4 °F 93% 29.77 in 1.8 mi SW 27.6 mph 38.0 mph 0.00 in Snow Light Snow
1:26 PM 30.2 °F 15.4 °F 26.6 °F 86% 29.77 in 2.0 mi SW 28.8 mph 41.4 mph 0.00 in Snow Light Snow
1:33 PM 30.2 °F 16.2 °F 26.6 °F 86% 29.78 in 8.0 mi SW 25.3 mph 43.7 mph 0.01 in   Overcast
1:53 PM 28.9 °F 14.8 °F 25.0 °F 85% 29.81 in 8.0 mi SW 24.2 mph 44.9 mph 0.01 in   Overcast
2:53 PM 28.9 °F 16.9 °F 24.1 °F 82% 29.88 in 10.0 mi SW 17.3 mph 27.6 mph N/A   Overcast
3:53 PM 28.0 °F 15.7 °F 24.1 °F 85% 29.94 in 10.0 mi WSW 17.3 mph 25.3 mph N/A   Overcast
4:53 PM 27.0 °F 15.6 °F 21.0 °F 78% 29.97 in 9.0 mi SW 13.8 mph 21.9 mph 0.00 in   Overcast
5:53 PM 27.0 °F 14.3 °F 19.9 °F 75% 30.02 in 10.0 mi SW 17.3 mph 26.5 mph N/A   Overcast
6:53 PM 26.1 °F 15.6 °F 19.9 °F 78% 30.04 in 10.0 mi WSW 11.5 mph 19.6 mph N/A   Overcast
7:53 PM 25.0 °F 12.6 °F 19.0 °F 78% 30.06 in 10.0 mi WSW 15.0 mph - N/A   Overcast
8:53 PM 25.0 °F 14.8 °F 18.0 °F 75% 30.11 in 10.0 mi WSW 10.4 mph - N/A   Overcast
9:53 PM 24.1 °F 17.0 °F 18.0 °F 77% 30.12 in 10.0 mi Variable 5.8 mph - N/A   Overcast
10:53 PM 23.0 °F 18.4 °F 17.1 °F 78% 30.13 in 10.0 mi WNW 3.5 mph - N/A   Partly Cloudy
11:53 PM 19.9 °F - 17.1 °F 89% 30.15 in 10.0 mi Calm Calm - N/A   Partly Cloudy